#timestamp,LO_Frequency,Hit,StdDev 
1709568015.7,286047001.9,N
1709568035.6,286047001.4,N
1709568055.4,286047004.0,Y
1709568075.2,286047001.5,P
1709568095.1,286047002.7,P
1709568096.0,286047002.7,P
1709568115.8,286047002.8,Y
1709568135.7,286046999.1,P
1709568155.5,286046998.7,N
1709568175.3,286047001.2,N
1709568195.2,286047000.5,N
1709568215.9,286047000.8,N
1709568235.7,286047000.7,N
1709568255.6,286047000.7,N
1709568275.4,286047004.0,Y
1709568295.3,286047003.7,P
1709568315.1,286047002.4,N
1709568316.0,286047002.4,N
1709568335.8,286047002.4,N
1709568355.7,286046999.8,N
1709568375.5,286047000.4,N
1709568395.3,286046998.5,N
1709568415.2,286046998.5,N
1709568435.0,286046998.2,N
1709568435.9,286046998.2,N
1709568455.8,286046999.7,N
1709568475.6,286047002.7,N
1709568495.4,286047002.0,N
1709568515.3,286047003.8,N
1709568535.1,286047001.9,N
1709568555.8,286047002.5,N
1709568575.7,286047004.0,N
1709568595.5,286047004.1,N
1709568615.4,286047002.3,N
1709568635.2,286047000.1,N
1709568655.0,286047002.7,N
1709568655.9,286047002.7,N
1709568675.8,286047002.4,N
1709568695.6,286047000.6,N
1709568715.4,286047001.1,N
1709568735.3,286047000.2,N
1709568755.1,286047002.8,N
1709568775.9,286047000.2,N
1709568795.7,286047000.4,N
1709568815.5,286047002.3,N
1709568835.4,286047001.6,N
1709568855.2,286047002.1,N
1709568875.0,286047002.4,N
1709568875.9,286047002.4,N
1709568895.8,286047000.0,N
1709568915.6,286047000.2,N
1709568935.4,286047002.7,N
1709568955.3,286047002.5,N
1709568975.1,286047002.0,N
1709568995.9,286047002.1,N
1709569015.7,286047001.7,N
1709569035.5,286047001.5,N
1709569055.4,286047001.7,N
1709569075.2,286047001.8,N
1709569095.0,286047003.6,Y
1709569096.0,286047003.6,P
1709569115.8,286047002.0,N
1709569135.6,286047002.4,N
1709569155.5,286047004.4,Y
1709569175.3,286047000.4,P
1709569195.1,286047001.7,N
1709569215.9,286047000.7,N
1709569235.7,286046998.1,N
1709569255.6,286046998.4,N
1709569275.4,286046999.9,N
1709569295.3,286047001.8,N
1709569315.2,286047002.1,N
1709569335.0,286047002.1,N
1709569335.9,286047002.1,N
1709569355.8,286047002.1,N
1709569375.6,286047000.8,N
1709569395.4,286046998.2,N
1709569415.3,286047001.2,N
1709569435.1,286047000.8,N
1709569455.8,286047000.8,N
1709569475.7,286047000.8,N
1709569495.5,286046998.4,N
1709569515.3,286046998.7,N
1709569535.2,286047000.8,N
1709569555.0,286047000.7,N
1709569555.9,286047000.7,N
1709569575.8,286047001.0,N
1709569595.6,286047000.9,N
1709569615.4,286047000.5,N
1709569635.3,286047000.9,N
1709569655.1,286046998.2,N
1709569675.8,286046998.9,N
1709569695.7,286046999.1,N
1709569715.5,286046998.9,N
1709569735.4,286046999.0,N
1709569755.2,286046999.3,N
1709569775.0,286046999.0,N
1709569775.9,286046999.0,N
1709569795.8,286046998.7,N
1709569815.6,286046998.5,N
1709569835.4,286047000.8,N
1709569855.3,286046998.7,N
1709569875.1,286046998.1,N
1709569895.9,286047001.2,N
1709569915.7,286046998.1,N
1709569935.5,286046998.5,N
1709569955.4,286046998.5,N
1709569975.2,286047000.7,N
1709569995.0,286046998.6,N
1709569995.9,286046998.6,N
1709570015.8,286047001.1,N
1709570035.6,286047000.8,N
1709570055.5,286047001.1,N
1709570075.3,286047000.6,N
1709570095.1,286047000.8,N
1709570115.9,286047000.6,N
1709570135.7,286047000.8,N
1709570155.5,286047000.0,N
1709570175.4,286047000.1,N
1709570195.2,286046999.7,N
1709570215.0,286046999.9,N
1709570216.0,286046999.9,N
1709570235.8,286047000.2,N
1709570255.6,286047004.3,Y
1709570275.5,286047005.2,P
1709570295.4,286047006.0,N
1709570315.3,286047004.0,N
1709570335.1,286047004.4,N
1709570336.0,286047004.4,N
1709570355.8,286047001.5,N
1709570375.7,286047001.7,N
1709570395.5,286047002.0,N
1709570415.3,286047001.8,N
1709570435.2,286047003.3,N
1709570455.0,286047003.8,N
1709570455.9,286047003.8,N
1709570475.8,286047003.6,N
1709570495.6,286047004.0,N
1709570515.4,286047004.0,N
1709570535.3,286047001.7,N
1709570555.1,286047001.9,N
1709570575.0,286047002.4,N
1709570576.0,286047002.4,N
1709570595.8,286047001.9,N
1709570615.6,286047004.1,N
1709570635.5,286047002.5,N
1709570655.3,286047002.6,N
1709570675.1,286047001.5,N
1709570695.9,286047003.9,N
1709570715.7,286047004.0,N
1709570735.5,286047004.2,Y
1709570755.4,286047000.4,P
1709570775.2,286047001.1,N
1709570795.1,286046998.8,N
1709570796.0,286046998.8,N
1709570815.8,286046998.9,N
1709570835.6,286046998.3,N
1709570855.5,286046998.9,N
1709570875.3,286047001.2,N
1709570895.1,286047001.0,N
1709570915.9,286047000.6,N
1709570935.7,286047000.8,N
1709570955.5,286047000.6,N
1709570975.4,286047001.6,N
1709570995.2,286047000.0,N
1709571015.1,286046998.5,N
1709571035.8,286046998.7,N
1709571055.7,286046999.4,N
1709571075.5,286047000.4,N
1709571095.4,286047001.0,N
1709571115.2,286047001.2,N
1709571135.0,286047000.4,N
1709571135.9,286047000.4,N
1709571155.8,286047000.6,N
1709571175.6,286047001.0,N
1709571195.4,286046998.2,N
1709571215.3,286046998.2,N
1709571235.1,286046997.0,N
1709571255.9,286046999.2,N
1709571275.7,286046996.9,N
1709571295.5,286046999.5,N
1709571315.4,286046996.9,N
1709571335.2,286047001.5,N
1709571355.0,286047000.2,N
1709571355.9,286047000.2,N
1709571375.8,286047000.8,N
1709571395.6,286046998.3,N
1709571415.4,286047001.2,N
1709571435.3,286047000.8,N
1709571455.1,286047000.3,N
1709571475.9,286046999.8,N
1709571495.7,286046999.7,N
1709571515.5,286046999.9,N
1709571535.4,286047000.3,N
1709571555.5,286047001.6,N
1709571575.3,286047006.9,Y
1709571595.2,286047004.8,P
